Location: College Rock
(37.2713°N, 119.1740°W)
Time: 13:15:17
(UTC+00:00)

ATLAS CENTAUR R/B - Pass Details

Date: 29 October 2020
Orbit: 479 x 667 km, 64.7° (Epoch: 26 November)

Event Time Altitude Azimuth Distance (km) Brightness Sun altitude
Rises 12:39:41 0° 189° (S) 2,702 4.8 -20.2°
Reaches altitude 10° 12:42:04 10° 180° (S) 1,781 3.9 -19.8°
Maximum altitude 12:45:40 34° 115° (ESE) 871 2.9 -19.1°
Drops below altitude 10° 12:49:07 10° 50° (NE) 1,708 4.5 -18.4°
Sets 12:51:21 0° 41° (NE) 2,575 5.3 -17.9°
